Regional Weather Roundup
Issued by NWS

Home | Current Version | Previous Version | Text Only | Print | Product List | Glossary Off
Versions: 1 2 3 4 5 6 7 8 9 10 11 12 13 14 15 16 17 18 19 20 21 22 23 24 25 26 27

000
ASUS45 KCYS 031210
RWRWY

WYOMING REGIONAL WEATHER ROUNDUP
NATIONAL WEATHER SERVICE CHEYENNE WY
500 AM MST SAT DEC 03 2016

NOTE:  "FAIR" INDICATES FEW OR NO CLOUDS BELOW 12,000 FEET
WITH NO SIGNIFICANT WEATHER AND/OR OBSTRUCTIONS TO VISIBILITY.

WYZ001-031300-
YELLOWSTONE NATIONAL PARK

CITY           SKY/WX    TMP DP  RH WIND       PRES   REMARKS
LK YELLOWSTONE   N/A     13   8  81 VRB7      30.03S WCI   3
6HR MIN TEMP:  11; 6HR MAX TEMP:  13; 6HR PCP:  0.02;

W YELLOWSTONE  NOT AVBL

$$
WYZ002>013-054>058-071-098>099-031300-
NORTHERN WYOMING

CITY           SKY/WX    TMP DP  RH WIND       PRES   REMARKS
JACKSON        CLOUDY    18  16  93 SW6       30.09S WCI   9
CODY           FAIR      31  11  43 W14G21    29.91R WCI  21
GREYBULL       CLOUDY    24  17  74 CALM      29.95S
6HR MIN TEMP:  22; 6HR MAX TEMP:  27;

WORLAND        CLOUDY    21  18  88 CALM      29.94S
6HR MIN TEMP:  18; 6HR MAX TEMP:  25;

SHERIDAN       MOCLDY    20  14  77 E3        29.88S
6HR MIN TEMP:  14; 6HR MAX TEMP:  22;

BUFFALO        MOCLDY    27   6  41 W6        29.86S WCI  20
6HR MIN TEMP:  20; 6HR MAX TEMP:  29;

GILLETTE       FAIR      21  13  71 SW18      29.85S WCI   6
6HR MIN TEMP:  21; 6HR MAX TEMP:  26;

HULETT         FAIR      28  18  64 SW15G21   29.88F WCI  17
NEWCASTLE      FAIR      23  19  86 SE10      29.94F WCI  12

$$
WYZ014>020-022>026-101>103-031300-
CENTRAL WYOMING

CITY           SKY/WX    TMP DP  RH WIND       PRES   REMARKS
BIG PINEY      FAIR       4   1  88 CALM      30.08S
6HR MIN TEMP:   3; 6HR MAX TEMP:  10;

PINEDALE       CLOUDY    12   9  85 W5        30.07S WCI   4
DUBOIS         CLOUDY    19   7  58 NW20G30   29.94F WCI   4
LANDER         FAIR      17   7  64 W5        29.92F WCI  10
6HR MIN TEMP:  13; 6HR MAX TEMP:  21;

RIVERTON       FAIR      19   8  62 SW14      29.93S WCI   6
6HR MIN TEMP:  17; 6HR MAX TEMP:  23;

CASPER         FAIR      20  11  68 SW20G29   29.95R WCI   4
6HR MIN TEMP:  19; 6HR MAX TEMP:  22;

DOUGLAS        FAIR      24  12  60 SW14      29.94F WCI  12
6HR MIN TEMP:   9; 6HR MAX TEMP:  24;


$$
WYZ021-027>030-104>119-031300-
SOUTHERN WYOMING

CITY           SKY/WX    TMP DP  RH WIND       PRES   REMARKS
EVANSTON       CLOUDY    14   8  77 SW16      30.13F WCI  -2
6HR MIN TEMP:   9; 6HR MAX TEMP:  14;

FORT BRIDGER   CLOUDY    19  11  70 SW14G20   30.12F WCI   6
ROCK SPRINGS   FAIR      14   7  73 SW20      30.08F WCI  -3
6HR MIN TEMP:  11; 6HR MAX TEMP:  17;

DIXON          FAIR      12   7  80 CALM      30.18S
RAWLINS        FAIR      16   9  74 SW15G25   30.02F WCI   1
6HR MIN TEMP:  12; 6HR MAX TEMP:  16;

SARATOGA       FAIR       9   5  85 S8        30.06F WCI  -4
LARAMIE        FAIR      13   5  70 SW23G29   29.95F WCI  -6
6HR MIN TEMP:   2; 6HR MAX TEMP:  13;

CHEYENNE       FAIR      16   7  67 W14       29.97F WCI   2
6HR MIN TEMP:  16; 6HR MAX TEMP:  24;

TORRINGTON     FAIR      19  12  74 S5        30.01F WCI  12
6HR MIN TEMP:  19; 6HR MAX TEMP:  27;

PINE BLUFFS    FAIR      14  12  92 S8        30.03F WCI   3

$$




USA.gov is the U.S. government's official web portal to all federal, state and local government web resources and services.